Weather History for KIDP - December, 2013

Change the Weather History Date:

Friday, December 6, 2013

  Actual Average (KCNU) Record (KCNU)
Temperature  
Mean Temperature 18 °F 37 °F  
Max Temperature 21 °F 47 °F 74 °F (1939)
Min Temperature 12 °F 27 °F -2 °F (1950)
Degree Days  
Heating Degree Days 48 28  
Month to date heating degree days 163  
Since 1 July heating degree days 1015  
Cooling Degree Days 0 0  
Month to date cooling degree days 0  
Year to date cooling degree days 1532  
Moisture  
Dew Point 7 °F    
Average Humidity 60    
Maximum Humidity 86    
Minimum Humidity 42    
Precipitation  
Precipitation 0.00 in 0.07 in 0.74 in (1974)
Month to date precipitation 0.41  
Year to date precipitation 40.73  
Sea Level Pressure  
Sea Level Pressure 30.45 in    
Wind  
Wind Speed 15 mph (NNE)    
Max Wind Speed 20 mph    
Max Gust Speed 24 mph    
Visibility 9 miles    
Events Snow    
T = Trace of Precipitation, MM = Missing Value Source: NWS Daily Summary

Daily Weather History Graph

Daily Weather History Graph

Search for Another Location

Airport or City:

Trip Planner

Search our weather history database for the weather conditions in past years. The results will help you decide how hot, cold, wet, or windy it might be!

Date:

Astronomy

Dec. 06, 2013 Rise Set
Actual Time 7:22 AM CST 5:05 PM CST
Civil Twilight 6:54 AM CST 5:34 PM CST
Nautical Twilight 6:21 AM CST 6:06 PM CST
Astronomical Twilight 5:50 AM CST 6:38 PM CST
Moon 10:32 AM CST (12/6) 9:34 PM CST (12/6)
Length of Visible Light 10h 40m
Length of Day
9h 42m
Waxing Crescent, 19% of the Moon is Illuminated
Dec 6
Waxing Crescent
Dec 9
First Quarter
Dec 17
Full
Dec 25
Last Quarter
Jan 1
New

Hourly Weather History & Observations

Time (CST) Temp. Windchill Dew Point Humidity Pressure Visibility Wind Dir Wind Speed Gust Speed Precip Events Conditions
12:15 AM 21.2 °F 6.8 °F 10.4 °F 63% 30.33 in 10.0 mi North 17.3 mph 20.7 mph N/A   Overcast
12:35 AM 21.2 °F 6.4 °F 10.4 °F 63% 30.32 in 10.0 mi North 18.4 mph 24.2 mph N/A   Overcast
12:55 AM 21.2 °F 7.8 °F 8.6 °F 58% 30.31 in 10.0 mi NNE 15.0 mph 23.0 mph N/A   Overcast
1:15 AM 21.2 °F 7.3 °F 8.6 °F 58% 30.32 in 10.0 mi NNE 16.1 mph 23.0 mph N/A   Overcast
1:35 AM 21.2 °F 7.3 °F 8.6 °F 58% 30.32 in 10.0 mi North 16.1 mph - N/A   Overcast
1:55 AM 21.2 °F 6.8 °F 8.6 °F 58% 30.33 in 7.0 mi North 17.3 mph - N/A Snow Light Snow
2:15 AM 19.4 °F 3.6 °F 10.4 °F 68% 30.33 in 10.0 mi NNE 19.6 mph 23.0 mph N/A   Overcast
2:35 AM 19.4 °F 4.1 °F 10.4 °F 68% 30.34 in 7.0 mi North 18.4 mph 24.2 mph N/A   Overcast
2:55 AM 19.4 °F 4.5 °F 10.4 °F 68% 30.33 in 7.0 mi North 17.3 mph 23.0 mph N/A   Overcast
3:15 AM 19.4 °F 4.5 °F 10.4 °F 68% 30.35 in 10.0 mi North 17.3 mph - N/A   Overcast
3:35 AM 19.4 °F 5.5 °F 10.4 °F 68% 30.34 in 5.0 mi North 15.0 mph 20.7 mph N/A Snow Light Snow
3:55 AM 19.4 °F 4.5 °F 12.2 °F 74% 30.33 in 3.0 mi NNE 17.3 mph - N/A Snow Light Snow
4:15 AM 19.4 °F 4.5 °F 12.2 °F 74% 30.34 in 3.0 mi North 17.3 mph - N/A Snow Light Snow
4:35 AM 19.4 °F 4.5 °F 12.2 °F 74% 30.35 in 4.0 mi North 17.3 mph 21.9 mph N/A Snow Light Snow
4:55 AM 19.4 °F 5.5 °F 12.2 °F 74% 30.35 in 7.0 mi North 15.0 mph 19.6 mph N/A Snow Light Snow
5:15 AM 19.4 °F 5.0 °F 12.2 °F 74% 30.34 in 4.0 mi NNE 16.1 mph - N/A Snow Light Snow
5:35 AM 19.4 °F 5.0 °F 12.2 °F 74% 30.33 in 5.0 mi NNE 16.1 mph 20.7 mph N/A Snow Light Snow
5:55 AM 19.4 °F 4.1 °F 12.2 °F 74% 30.34 in 4.0 mi NNE 18.4 mph 23.0 mph N/A Snow Light Snow
6:15 AM 19.4 °F 4.1 °F 12.2 °F 74% 30.36 in 4.0 mi NNE 18.4 mph - N/A Snow Light Snow
6:35 AM 19.4 °F 6.6 °F 12.2 °F 74% 30.38 in 5.0 mi North 12.7 mph - N/A Snow Light Snow
6:55 AM 17.6 °F 5.0 °F 14.0 °F 86% 30.40 in 1.8 mi North 11.5 mph - N/A Snow Light Snow
7:15 AM 17.6 °F 2.7 °F 14.0 °F 86% 30.39 in 1.0 mi NNE 16.1 mph - N/A Snow Snow
7:35 AM 17.6 °F 4.3 °F 14.0 °F 86% 30.36 in 1.2 mi North 12.7 mph 18.4 mph N/A Snow Light Snow
7:55 AM 17.6 °F 2.7 °F 12.2 °F 79% 30.38 in 3.0 mi NNE 16.1 mph - N/A Snow Light Snow
8:15 AM 17.6 °F 3.2 °F 10.4 °F 73% 30.37 in 10.0 mi NNE 15.0 mph 19.6 mph N/A   Overcast
8:35 AM 19.4 °F 6.0 °F 8.6 °F 63% 30.41 in 10.0 mi NNE 13.8 mph 19.6 mph N/A   Overcast
8:55 AM 19.4 °F 4.5 °F 8.6 °F 63% 30.41 in 10.0 mi North 17.3 mph 20.7 mph N/A   Overcast
9:15 AM 19.4 °F 6.0 °F 8.6 °F 63% 30.41 in 10.0 mi North 13.8 mph - N/A   Overcast
9:35 AM 19.4 °F 5.0 °F 5.0 °F 54% 30.42 in 10.0 mi North 16.1 mph 23.0 mph N/A   Overcast
9:55 AM 19.4 °F 4.1 °F 6.8 °F 58% 30.43 in 10.0 mi North 18.4 mph - N/A   Overcast
10:15 AM 19.4 °F 4.1 °F 5.0 °F 54% 30.44 in 10.0 mi NNE 18.4 mph - N/A   Overcast
10:35 AM 19.4 °F 6.0 °F 6.8 °F 58% 30.44 in 10.0 mi North 13.8 mph 21.9 mph N/A   Overcast
10:55 AM 19.4 °F 4.5 °F 6.8 °F 58% 30.47 in 10.0 mi North 17.3 mph - N/A   Overcast
11:15 AM 19.4 °F 5.5 °F 5.0 °F 54% 30.48 in 10.0 mi North 15.0 mph 19.6 mph N/A   Overcast
11:35 AM 21.2 °F 7.3 °F 5.0 °F 50% 30.47 in 10.0 mi NNE 16.1 mph - N/A   Overcast
11:55 AM 21.2 °F 6.8 °F 5.0 °F 50% 30.45 in 10.0 mi NNE 17.3 mph - N/A   Overcast
12:15 PM 21.2 °F 7.3 °F 5.0 °F 50% 30.45 in 10.0 mi NNE 16.1 mph - N/A   Overcast
12:35 PM 21.2 °F 6.8 °F 3.2 °F 46% 30.45 in 10.0 mi North 17.3 mph 21.9 mph N/A   Overcast
12:55 PM 21.2 °F 8.9 °F 5.0 °F 50% 30.45 in 10.0 mi NNE 12.7 mph 18.4 mph N/A   Overcast
1:15 PM 21.2 °F 7.8 °F 5.0 °F 50% 30.45 in 10.0 mi NNE 15.0 mph 19.6 mph N/A   Overcast
1:35 PM 21.2 °F 7.8 °F 3.2 °F 46% 30.46 in 10.0 mi North 15.0 mph - N/A   Overcast
1:55 PM 21.2 °F 7.3 °F 3.2 °F 46% 30.45 in 10.0 mi North 16.1 mph 20.7 mph N/A   Overcast
2:15 PM 21.2 °F 7.3 °F 3.2 °F 46% 30.44 in 10.0 mi North 16.1 mph - N/A   Overcast
2:35 PM 21.2 °F 7.3 °F 3.2 °F 46% 30.44 in 10.0 mi North 16.1 mph 21.9 mph N/A   Overcast
2:55 PM 21.2 °F 6.8 °F 3.2 °F 46% 30.44 in 10.0 mi NNE 17.3 mph 21.9 mph N/A   Overcast
3:15 PM 21.2 °F 7.8 °F 3.2 °F 46% 30.45 in 10.0 mi North 15.0 mph - N/A   Overcast
3:35 PM 21.2 °F 7.8 °F 3.2 °F 46% 30.46 in 10.0 mi North 15.0 mph - N/A   Overcast
3:55 PM 21.2 °F 7.3 °F 1.4 °F 42% 30.47 in 10.0 mi North 16.1 mph - N/A   Overcast
4:15 PM 21.2 °F 8.9 °F 1.4 °F 42% 30.48 in 10.0 mi NNE 12.7 mph 19.6 mph N/A   Overcast
4:35 PM 21.2 °F 9.5 °F 3.2 °F 46% 30.49 in 10.0 mi North 11.5 mph - N/A   Overcast
5:55 PM 19.4 °F 7.2 °F 3.2 °F 49% 30.52 in 10.0 mi North 11.5 mph - N/A   Mostly Cloudy
6:15 PM 17.6 °F 6.4 °F 3.2 °F 53% 30.52 in 10.0 mi North 9.2 mph - N/A   Scattered Clouds
6:35 PM 17.6 °F 6.4 °F 3.2 °F 53% 30.53 in 10.0 mi North 9.2 mph - N/A   Clear
6:55 PM 17.6 °F 5.7 °F 3.2 °F 53% 30.54 in 10.0 mi North 10.4 mph - N/A   Clear
7:15 PM 17.6 °F 6.4 °F 3.2 °F 53% - 10.0 mi North 9.2 mph - N/A   Clear
7:35 PM 15.8 °F 5.1 °F 3.2 °F 58% 30.56 in 10.0 mi North 8.1 mph - N/A   Clear
7:55 PM 15.8 °F 5.1 °F 3.2 °F 58% 30.57 in 10.0 mi North 8.1 mph - N/A   Clear
8:15 PM 14.0 °F 2.9 °F 3.2 °F 62% 30.57 in 10.0 mi North 8.1 mph - N/A   Clear
8:35 PM 14.0 °F 2.9 °F 3.2 °F 62% 30.58 in 10.0 mi North 8.1 mph - N/A   Clear
8:55 PM 14.0 °F 0.5 °F 3.2 °F 62% 30.59 in 10.0 mi North 11.5 mph - N/A   Clear
9:15 PM 14.0 °F 1.2 °F 3.2 °F 62% 30.60 in 10.0 mi North 10.4 mph - N/A   Clear
9:35 PM 14.0 °F 0.5 °F 3.2 °F 62% 30.61 in 10.0 mi North 11.5 mph - N/A   Clear
9:55 PM 14.0 °F 2.0 °F 3.2 °F 62% 30.61 in 10.0 mi North 9.2 mph - N/A   Clear
10:15 PM 14.0 °F 2.0 °F 3.2 °F 62% 30.62 in 10.0 mi North 9.2 mph - N/A   Clear
10:35 PM 14.0 °F 2.0 °F 3.2 °F 62% 30.62 in 10.0 mi North 9.2 mph - N/A   Clear
10:55 PM 14.0 °F 1.2 °F 3.2 °F 62% 30.61 in 10.0 mi NNE 10.4 mph - N/A   Clear
11:15 PM 14.0 °F 0.5 °F 3.2 °F 62% 30.62 in 10.0 mi NNE 11.5 mph - N/A   Clear
11:35 PM 14.0 °F -0.2 °F 3.2 °F 62% 30.62 in 10.0 mi NNE 12.7 mph 19.6 mph N/A   Clear
11:55 PM 12.2 °F -3.1 °F 3.2 °F 67% 30.62 in 10.0 mi NNE 13.8 mph 20.7 mph N/A   Clear